Starlink 2294

decayed
NORAD ID: 48020 Int'l Des: 2021-024 Owner: SPXS Country: US Constellation: starlink
LEOCIRCULAR
Gruppe

Über Starlink 2294

Beschreibung wird geladen...

Höhenverlauf

Altitude vs Time

uPlot chart will show altitude changes over time

Zweizeiliger Elementsatz

1 48020U 21024AV 25034.41441137 .12383694 12307-4 10972-2 0 9996
2 48020 53.0299 226.9750 0007410 266.5056 173.0333 16.38278407215270
Epoch: 3. Feb. 2025 • Age: 7522 hours

Aktueller Status

Position data unavailable
Startdatum 24. März 2021
Alter 4.7 years
Verglühungsdatum 3. Feb. 2025
Typ internet

Technische Details

Klassifizierung Payload
Masse 260.00 kg
Trockenmasse 248.00 kg
Gesamtmasse 260.00 kg
Länge 0.20 m
Durchmesser 2.80 m
Spannweite 9.00 m
Form Box + pan
Hersteller SPXS
Bus-Typ Starlink
Phasenstatus Unknown Transfer Status
Besitzer/Staat SPXS/US

Große Konstellationen

Loading constellations...